Location: Little Chesterford
(52.0500°N, 0.1833°E)
Time: 11:18:53
(UTC+00:00)

Cosmos 1459 Rocket - Pass Details

Date: 26 September 2023
Orbit: 936 x 1000 km, 83.0° (Epoch: 28 November)

Event Time Altitude Azimuth Distance (km) Brightness Sun altitude
Rises 20:55:33 0° 351° (N) 3,729 7.7 -27.6°
Reaches altitude 10° 20:58:10 10° 356° (N) 2,780 6.9 -27.9°
Enters shadow 21:03:56 53° 57° (ENE) 1,218 4.3 -28.6°
